Location: Ostrava
(49.8330°N, 18.2830°E)
Time: 02:29:39
(UTC+01:00)

Transit 2A - All Passes

Search period start: 26 November 2014 00:00
Search period end: 06 December 2014 00:00
Orbit: 596 x 966 km, 66.7° (Epoch: 25 November)

Date Brightness Start Highest point End Pass type
(mag) Time Alt. Az. Time Alt. Az. Time Alt. Az.
26 Nov - 01:27:25 10° NNW 01:32:02 25° NNE 01:36:57 10° E visible
26 Nov - 03:10:19 10° NW 03:16:07 80° NE 03:22:22 10° SE visible
26 Nov - 04:54:21 10° WNW 04:58:56 24° WSW 05:03:43 10° SSW visible
26 Nov - 17:56:45 10° SSE 18:00:16 22° ESE 18:04:02 10° ENE visible
26 Nov - 19:38:17 10° SW 19:42:56 64° NW 19:48:08 10° NNE visible
26 Nov - 21:23:40 10° WNW 21:27:18 20° NNW 21:31:11 10° NNE night (unlit)
26 Nov - 23:10:09 10° NNW 23:12:44 13° N 23:15:26 10° NNE night (unlit)
27 Nov - 00:53:52 10° NNW 00:58:08 22° NNE 01:02:39 10° ENE night (unlit)
27 Nov - 02:36:44 10° NNW 02:42:28 63° NE 02:48:38 10° SE visible
27 Nov - 04:20:23 10° NW 04:25:31 32° WSW 04:30:55 10° S visible
27 Nov - 17:24:17 10° SE 17:26:57 15° ESE 17:29:45 10° ENE visible
27 Nov - 19:04:37 10° SW 19:09:18 86° NW 19:14:32 10° NE visible
27 Nov - 20:49:27 10° W 20:53:22 23° NNW 20:57:37 10° NNE visible
27 Nov - 22:36:05 10° NNW 22:38:41 14° N 22:41:24 10° NNE night (unlit)
28 Nov - 00:20:18 10° NNW 00:24:11 19° NNE 00:28:18 10° ENE night (unlit)
28 Nov - 02:03:11 10° NNW 02:08:45 49° NE 02:14:46 10° ESE visible
28 Nov - 03:46:33 10° NW 03:52:03 42° WSW 03:57:52 10° S visible
28 Nov - 16:53:12 10° ESE 16:53:41 10° E 16:54:10 10° E visible
28 Nov - 18:31:06 10° SSW 18:35:43 70° ESE 18:40:53 10° NE visible
28 Nov - 20:15:18 10° W 20:19:29 28° NW 20:24:04 10° NNE visible
28 Nov - 22:01:53 10° NW 22:04:38 14° N 22:07:31 10° NNE night (unlit)
28 Nov - 23:46:41 10° NNW 23:50:12 17° NNE 23:53:54 10° ENE night (unlit)
29 Nov - 01:29:38 10° NNW 01:35:00 40° NE 01:40:46 10° ESE night (unlit)
29 Nov - 03:12:48 10° NW 03:18:32 56° WSW 03:24:38 10° SSE visible
29 Nov - 04:59:23 10° W 05:00:45 11° W 05:02:08 10° WSW visible
29 Nov - 17:57:44 10° SSW 18:02:12 49° ESE 18:07:10 10° NE visible
29 Nov - 19:41:15 10° WSW 19:45:39 34° NW 19:50:31 10° NNE visible
29 Nov - 21:27:37 10° NW 21:30:36 15° NNW 21:33:45 10° NNE night (unlit)
29 Nov - 23:13:01 10° NNW 23:16:12 15° NNE 23:19:31 10° NE night (unlit)
30 Nov - 00:56:06 10° NNW 01:01:12 32° NE 01:06:41 10° E night (unlit)
30 Nov - 02:39:08 10° NW 02:44:58 73° WSW 02:51:13 10° SSE night (unlit)
30 Nov - 04:24:03 10° WNW 04:27:27 16° WSW 04:30:55 10° SW night (unlit)
30 Nov - 17:24:32 10° S 17:28:45 35° ESE 17:33:22 10° NE visible
30 Nov - 19:07:18 10° WSW 19:11:52 44° NW 19:16:58 10° NNE visible
30 Nov - 20:53:18 10° WNW 20:56:35 17° NNW 21:00:05 10° NNE visible
30 Nov - 22:39:15 10° NNW 22:42:09 14° N 22:45:11 10° NE night (unlit)
01 Dec - 00:22:33 10° NNW 00:27:21 27° NNE 00:32:29 10° E night (unlit)
01 Dec - 02:05:30 10° NW 02:11:22 87° NE 02:17:40 10° SE night (unlit)
01 Dec - 03:49:43 10° WNW 03:54:05 21° WSW 03:58:38 10° SSW night (unlit)
01 Dec - 16:51:34 10° SSE 16:55:21 25° ESE 16:59:27 10° NE visible
01 Dec - 18:33:27 10° SW 18:38:09 58° NW 18:43:23 10° NNE visible
01 Dec - 20:19:01 10° WNW 20:22:36 19° NNW 20:26:27 10° NNE visible
01 Dec - 22:05:21 10° NNW 22:08:06 14° N 22:10:57 10° NNE night (unlit)
01 Dec - 23:49:00 10° NNW 23:53:28 23° NNE 23:58:12 10° E night (unlit)
02 Dec - 01:31:54 10° NNW 01:37:43 69° NE 01:43:58 10° SE night (unlit)
02 Dec - 03:15:40 10° NW 03:20:41 29° WSW 03:25:56 10° SSW night (unlit)
02 Dec - 16:18:54 10° SSE 16:22:00 18° ESE 16:25:18 10° ENE visible
02 Dec - 17:59:44 10° SW 18:04:28 77° NW 18:09:47 10° NE visible
02 Dec - 19:44:45 10° WNW 19:48:39 22° NNW 19:52:52 10° NNE visible
02 Dec - 21:31:20 10° NNW 21:34:02 14° N 21:36:51 10° NNE visible
02 Dec - 23:15:25 10° NNW 23:19:31 20° NNE 23:23:51 10° ENE night (unlit)
03 Dec - 00:58:19 10° NNW 01:04:01 54° NE 01:10:08 10° SE night (unlit)
03 Dec - 02:41:47 10° NW 02:47:13 38° WSW 02:52:57 10° S night (unlit)
03 Dec - 15:46:53 10° SE 15:48:43 12° ESE 15:50:36 10° E daylight
03 Dec - 17:26:09 10° SSW 17:30:52 78° ESE 17:36:08 10° NE visible
03 Dec - 19:10:35 10° W 19:14:45 26° NNW 19:19:18 10° NNE visible
03 Dec - 20:57:10 10° NW 20:59:58 14° N 21:02:54 10° NNE visible
03 Dec - 22:41:48 10° NNW 22:45:32 18° NNE 22:49:28 10° ENE night (unlit)
04 Dec - 00:24:45 10° NNW 00:30:16 43° NE 00:36:10 10° ESE night (unlit)
04 Dec - 02:08:00 10° NW 02:13:43 51° WSW 02:19:46 10° S night (unlit)
04 Dec - 16:52:43 10° SSW 16:57:19 56° ESE 17:02:26 10° NE visible
04 Dec - 18:36:29 10° W 18:40:53 32° NW 18:45:44 10° NNE visible
04 Dec - 20:22:55 10° NW 20:25:55 15° NNW 20:29:04 10° NNE visible
04 Dec - 22:08:08 10° NNW 22:11:31 16° NNE 22:15:04 10° NE night (unlit)
04 Dec - 23:51:12 10° NNW 23:56:29 35° NE 00:02:06 10° ESE night (unlit)
05 Dec - 01:34:18 10° NW 01:40:10 67° WSW 01:46:24 10° SSE night (unlit)
05 Dec - 03:19:36 10° WNW 03:22:32 14° WSW 03:25:33 10° SW night (unlit)
05 Dec - 16:19:27 10° S 16:23:49 40° ESE 16:28:40 10° NE visible
05 Dec - 18:02:29 10° WSW 18:07:04 40° NW 18:12:10 10° NNE visible
05 Dec - 19:48:37 10° NW 19:51:53 16° NNW 19:55:21 10° NNE visible
05 Dec - 21:34:23 10° NNW 21:37:28 15° N 21:40:42 10° NE visible
05 Dec - 23:17:39 10° NNW 23:22:38 29° NE 23:27:56 10° E night (unlit)
